Location: Sortland
(68.7020°N, 15.4240°E)
Time: 19:14:28
(UTC+01:00)

Envisat - Pass Details

Date: 28 October 2019
Orbit: 764 x 766 km, 98.1° (Epoch: 17 November)

Event Time Altitude Azimuth Distance (km) Brightness Sun altitude
Rises 18:38:24 0° 194° (SSW) 3,232 6.3 -17.4°
Reaches altitude 10° 18:40:55 10° 203° (SSW) 2,309 5.7 -17.6°
Maximum altitude 18:45:31 33° 268° (W) 1,269 4.8 -18.0°
Drops below altitude 10° 18:50:08 10° 333° (NNW) 2,320 6.0 -18.4°
Sets 18:52:41 0° 343° (NNW) 3,250 6.7 -18.7°
